| time (UTC) | temp F | wind direction | speed knots | gust knots | rain 1hr in | rain 24hr in | rain mn in | humidity % | barometer mb |
| 20260509004522 | 50 | 130 | 0.0 | 0.9 | 0.02 | 0.09 | 0.09 | 91 | 1010.9 |
| 20260509004006 | 50 | 130 | 0.0 | 0.0 | 0.02 | 0.09 | 0.09 | 91 | 1010.7 |
| 20260509003509 | 50 | 130 | 0.0 | 0.9 | 0.01 | 0.08 | 0.08 | 91 | 1010.7 |
| 20260509003030 | 51 | 130 | 0.0 | 3.5 | 0.01 | 0.08 | 0.08 | 91 | 1010.6 |
| 20260509002510 | 51 | 130 | 0.9 | 3.5 | 0.01 | 0.08 | 0.08 | 91 | 1010.6 |
| 20260509002004 | 51 | 278 | 0.9 | 2.6 | 0.01 | 0.08 | 0.08 | 90 | 1010.6 |
| 20260509001523 | 51 | 241 | 0.0 | 1.7 | 0.01 | 0.08 | 0.08 | 90 | 1010.8 |
| 20260509001008 | 51 | 241 | 0.0 | 2.6 | 0.01 | 0.08 | 0.08 | 89 | 1010.8 |
| 20260509000503 | 51 | 117 | 0.0 | 3.5 | 0.01 | 0.08 | 0.08 | 89 | 1010.9 |
| 20260509000020 | 51 | 141 | 0.0 | 5.2 | 0.00 | 0.07 | 0.07 | 89 | 1011.2 |
| 20260508235508 | 51 | 94 | 2.6 | 6.1 | 0.00 | 0.07 | 0.07 | 89 | 1011.3 |
| 20260508235004 | 51 | 111 | 1.7 | 6.1 | 0.00 | 0.07 | 0.07 | 88 | 1011.0 |
| 20260508234512 | 52 | 190 | 0.9 | 3.5 | 0.00 | 0.07 | 0.07 | 88 | 1010.4 |
| 20260508234004 | 52 | 65 | 1.7 | 3.5 | 0.00 | 0.07 | 0.07 | 87 | 1010.4 |
| 20260508233507 | 52 | 235 | 0.9 | 3.5 | 0.00 | 0.07 | 0.07 | 87 | 1010.1 |
| 20260508233021 | 52 | 233 | 1.7 | 3.5 | 0.00 | 0.07 | 0.07 | 87 | 1010.0 |
| 20260508232507 | 52 | 263 | 1.7 | 3.5 | 0.00 | 0.07 | 0.07 | 86 | 1010.0 |
| 20260508232010 | 52 | 211 | 1.7 | 3.5 | 0.00 | 0.07 | 0.07 | 87 | 1010.0 |
| 20260508231523 | 52 | 200 | 0.0 | 5.2 | 0.00 | 0.07 | 0.07 | 87 | 1009.9 |
| 20260508231007 | 52 | 207 | 2.6 | 5.2 | 0.00 | 0.07 | 0.07 | 87 | 1009.9 |
| 20260508230507 | 52 | 198 | 2.6 | 5.2 | 0.00 | 0.07 | 0.07 | 86 | 1010.0 |
| 20260508230028 | 53 | 200 | 2.6 | 5.2 | 0.00 | 0.07 | 0.07 | 85 | 1010.1 |
| 20260508225508 | 53 | 200 | 1.7 | 3.5 | 0.00 | 0.07 | 0.07 | 85 | 1010.0 |
| 20260508225006 | 53 | 225 | 0.0 | 2.6 | 0.00 | 0.07 | 0.07 | 85 | 1010.0 |
| 20260508224527 | 53 | 221 | 0.9 | 2.6 | 0.00 | 0.07 | 0.07 | 85 | 1009.9 |
| 20260508224009 | 52 | 241 | 0.9 | 3.5 | 0.00 | 0.07 | 0.07 | 85 | 1009.8 |
| 20260508223513 | 52 | 259 | 0.9 | 3.5 | 0.00 | 0.07 | 0.07 | 85 | 1009.7 |
| 20260508223021 | 53 | 259 | 0.9 | 3.5 | 0.00 | 0.07 | 0.07 | 85 | 1009.7 |
| 20260508222508 | 53 | 278 | 0.9 | 3.5 | 0.00 | 0.07 | 0.07 | 85 | 1009.7 |
| 20260508222007 | 53 | 262 | 1.7 | 3.5 | 0.00 | 0.07 | 0.07 | 86 | 1009.6 |
| 20260508221518 | 53 | 283 | 1.7 | 3.5 | 0.00 | 0.07 | 0.07 | 86 | 1009.6 |
| 20260508221011 | 53 | 252 | 0.9 | 3.5 | 0.00 | 0.07 | 0.07 | 86 | 1009.7 |
| 20260508220510 | 52 | 268 | 0.9 | 5.2 | 0.00 | 0.07 | 0.07 | 86 | 1009.8 |
| 20260508220004 | 52 | 260 | 1.7 | 5.2 | 0.00 | 0.07 | 0.07 | 85 | 1009.8 |
| 20260508215502 | 53 | 278 | 2.6 | 5.2 | 0.00 | 0.07 | 0.07 | 85 | 1009.8 |
| 20260508215003 | 53 | 278 | 1.7 | 3.5 | 0.00 | 0.07 | 0.07 | 86 | 1010.0 |
| 20260508214515 | 53 | 266 | 0.9 | 2.6 | 0.00 | 0.07 | 0.07 | 85 | 1010.2 |
| 20260508214002 | 53 | 266 | 0.9 | 2.6 | 0.00 | 0.07 | 0.07 | 84 | 1010.2 |
| 20260508213506 | 53 | 266 | 0.9 | 2.6 | 0.00 | 0.07 | 0.07 | 84 | 1010.2 |
| 20260508213007 | 53 | 266 | 0.9 | 2.6 | 0.00 | 0.07 | 0.07 | 85 | 1010.2 |
| 20260508212501 | 53 | 266 | 0.0 | 2.6 | 0.00 | 0.07 | 0.07 | 85 | 1010.2 |
| 20260508212003 | 53 | 266 | 0.9 | 2.6 | 0.00 | 0.07 | 0.07 | 85 | 1010.2 |
| 20260508211505 | 53 | 305 | 0.9 | 2.6 | 0.00 | 0.07 | 0.07 | 84 | 1010.3 |
| 20260508211004 | 52 | 79 | 0.0 | 0.0 | 0.01 | 0.07 | 0.07 | 84 | 1010.5 |
| 20260508210503 | 52 | 79 | 0.0 | 0.0 | 0.01 | 0.07 | 0.07 | 85 | 1010.6 |
| 20260508210004 | 52 | 79 | 0.0 | 0.0 | 0.01 | 0.07 | 0.07 | 86 | 1010.7 |
| 20260508205504 | 52 | 79 | 0.0 | 0.0 | 0.02 | 0.07 | 0.07 | 86 | 1010.8 |
| 20260508205006 | 51 | 79 | 0.0 | 0.0 | 0.02 | 0.07 | 0.07 | 87 | 1010.9 |
| 20260508204504 | 51 | 79 | 0.0 | 0.0 | 0.02 | 0.07 | 0.07 | 89 | 1010.9 |
| 20260508204003 | 51 | 79 | 0.0 | 0.9 | 0.02 | 0.07 | 0.07 | 91 | 1011.1 |
| 20260508203507 | 51 | 79 | 0.0 | 1.7 | 0.02 | 0.07 | 0.07 | 90 | 1011.3 |
| 20260508203012 | 50 | 79 | 0.0 | 2.6 | 0.02 | 0.07 | 0.07 | 90 | 1011.2 |
| 20260508202503 | 50 | 79 | 0.0 | 2.6 | 0.02 | 0.07 | 0.07 | 89 | 1011.3 |
| 20260508202002 | 51 | 79 | 0.9 | 4.3 | 0.02 | 0.07 | 0.07 | 89 | 1011.4 |
| 20260508201509 | 51 | 76 | 1.7 | 4.3 | 0.02 | 0.07 | 0.07 | 89 | 1011.5 |
| 20260508201007 | 51 | 105 | 0.9 | 3.5 | 0.01 | 0.06 | 0.06 | 89 | 1011.6 |
| 20260508200503 | 51 | 98 | 1.7 | 3.5 | 0.01 | 0.06 | 0.06 | 88 | 1011.6 |
| 20260508200005 | 51 | 81 | 0.9 | 2.6 | 0.01 | 0.06 | 0.06 | 87 | 1011.7 |
| 20260508195503 | 51 | 83 | 0.9 | 5.2 | 0.00 | 0.05 | 0.05 | 87 | 1011.5 |
| 20260508195002 | 51 | 76 | 0.9 | 5.2 | 0.00 | 0.05 | 0.05 | 85 | 1011.5 |
| 20260508194506 | 51 | 137 | 2.6 | 6.1 | 0.00 | 0.05 | 0.05 | 84 | 1011.5 |
| 20260508194003 | 51 | 115 | 2.6 | 7.0 | 0.01 | 0.05 | 0.05 | 84 | 1011.4 |
| 20260508193506 | 51 | 57 | 2.6 | 7.8 | 0.01 | 0.05 | 0.05 | 82 | 1011.4 |
| 20260508193003 | 52 | 47 | 2.6 | 9.6 | 0.01 | 0.05 | 0.05 | 83 | 1011.4 |
| 20260508192504 | 51 | 64 | 5.2 | 12.2 | 0.01 | 0.05 | 0.05 | 84 | 1011.4 |
| 20260508192008 | 51 | 51 | 6.1 | 12.2 | 0.01 | 0.05 | 0.05 | 83 | 1011.5 |
| 20260508191522 | 51 | 41 | 6.1 | 11.3 | 0.01 | 0.05 | 0.05 | 85 | 1011.6 |
| 20260508191003 | 51 | 43 | 5.2 | 11.3 | 0.02 | 0.05 | 0.05 | 86 | 1011.5 |
| 20260508190503 | 51 | 21 | 5.2 | 11.3 | 0.02 | 0.05 | 0.05 | 86 | 1011.7 |
| 20260508190028 | 51 | 51 | 3.5 | 10.4 | 0.02 | 0.05 | 0.05 | 87 | 1011.7 |
| 20260508185502 | 51 | 82 | 6.1 | 14.8 | 0.02 | 0.05 | 0.05 | 87 | 1012.0 |
| 20260508185004 | 51 | 28 | 7.8 | 14.8 | 0.02 | 0.05 | 0.05 | 86 | 1011.9 |
| 20260508184505 | 51 | 38 | 5.2 | 9.6 | 0.03 | 0.05 | 0.05 | 86 | 1011.8 |
| 20260508184004 | 51 | 53 | 3.5 | 8.7 | 0.02 | 0.04 | 0.04 | 86 | 1011.9 |
| 20260508183507 | 51 | 9 | 4.3 | 8.7 | 0.02 | 0.04 | 0.04 | 86 | 1012.0 |
| 20260508183007 | 51 | 55 | 5.2 | 8.7 | 0.02 | 0.04 | 0.04 | 86 | 1012.2 |
| 20260508182504 | 51 | 43 | 4.3 | 10.4 | 0.02 | 0.04 | 0.04 | 84 | 1012.3 |
| 20260508182011 | 52 | 105 | 6.1 | 11.3 | 0.02 | 0.04 | 0.04 | 84 | 1012.4 |
| 20260508181507 | 52 | 113 | 6.1 | 11.3 | 0.02 | 0.04 | 0.04 | 83 | 1012.6 |
| 20260508181002 | 52 | 47 | 5.2 | 9.6 | 0.01 | 0.03 | 0.03 | 82 | 1012.7 |
| 20260508180508 | 52 | 92 | 4.3 | 12.2 | 0.01 | 0.03 | 0.03 | 81 | 1012.7 |
| 20260508180005 | 53 | 100 | 6.1 | 13.9 | 0.01 | 0.03 | 0.03 | 79 | 1012.7 |
| 20260508175503 | 53 | 108 | 5.2 | 14.8 | 0.01 | 0.03 | 0.03 | 78 | 1012.7 |
| 20260508175007 | 54 | 78 | 7.0 | 14.8 | 0.01 | 0.03 | 0.03 | 77 | 1012.8 |
| 20260508174521 | 54 | 110 | 7.0 | 12.2 | 0.00 | 0.02 | 0.02 | 77 | 1012.8 |
| 20260508174004 | 55 | 49 | 4.3 | 8.7 | 0.00 | 0.02 | 0.02 | 76 | 1012.8 |
| 20260508173509 | 55 | 96 | 3.5 | 12.2 | 0.00 | 0.02 | 0.02 | 77 | 1012.8 |
| 20260508173004 | 54 | 51 | 4.3 | 13.9 | 0.00 | 0.02 | 0.02 | 74 | 1012.7 |
| 20260508172505 | 55 | 102 | 6.1 | 15.6 | 0.00 | 0.02 | 0.02 | 73 | 1012.7 |
| 20260508172004 | 55 | 111 | 7.8 | 15.6 | 0.00 | 0.02 | 0.02 | 71 | 1012.7 |
| 20260508171509 | 55 | 134 | 6.1 | 13.0 | 0.00 | 0.02 | 0.02 | 72 | 1012.7 |
| 20260508171004 | 55 | 95 | 5.2 | 13.0 | 0.00 | 0.02 | 0.02 | 72 | 1012.7 |
| 20260508170504 | 55 | 55 | 5.2 | 10.4 | 0.00 | 0.02 | 0.02 | 73 | 1012.7 |
| 20260508170012 | 56 | 72 | 5.2 | 12.2 | 0.00 | 0.02 | 0.02 | 74 | 1012.6 |
| 20260508165505 | 56 | 130 | 6.1 | 13.9 | 0.00 | 0.02 | 0.02 | 71 | 1012.6 |
| 20260508165004 | 56 | 78 | 4.3 | 13.9 | 0.00 | 0.02 | 0.02 | 70 | 1012.7 |
| 20260508164509 | 57 | 44 | 8.7 | 13.9 | 0.00 | 0.02 | 0.02 | 66 | 1012.7 |
| 20260508164004 | 57 | 120 | 6.1 | 14.8 | 0.00 | 0.02 | 0.02 | 65 | 1012.6 |
| 20260508163508 | 58 | 107 | 8.7 | 14.8 | 0.00 | 0.02 | 0.02 | 65 | 1012.7 |
| 20260508163024 | 58 | 98 | 5.2 | 13.9 | 0.00 | 0.02 | 0.02 | 66 | 1012.6 |
| 20260508162504 | 58 | 73 | 6.1 | 14.8 | 0.00 | 0.02 | 0.02 | 66 | 1012.6 |
| 20260508162006 | 58 | 76 | 6.1 | 14.8 | 0.00 | 0.02 | 0.02 | 67 | 1012.6 |
| 20260508161521 | 59 | 96 | 7.8 | 14.8 | 0.00 | 0.02 | 0.02 | 66 | 1012.8 |
| 20260508161004 | 58 | 127 | 5.2 | 12.2 | 0.00 | 0.02 | 0.02 | 71 | 1012.8 |
| 20260508160504 | 57 | 115 | 7.0 | 12.2 | 0.00 | 0.02 | 0.02 | 68 | 1012.9 |
| 20260508160010 | 57 | 36 | 2.6 | 12.2 | 0.00 | 0.02 | 0.02 | 71 | 1013.0 |
| 20260508155505 | 57 | 107 | 6.1 | 13.9 | 0.00 | 0.02 | 0.02 | 70 | 1013.1 |
| 20260508155004 | 57 | 57 | 7.0 | 13.9 | 0.00 | 0.02 | 0.02 | 70 | 1012.9 |
| 20260508154515 | 57 | 62 | 6.1 | 13.0 | 0.00 | 0.02 | 0.02 | 69 | 1012.9 |
| 20260508154005 | 57 | 98 | 8.7 | 13.0 | 0.00 | 0.02 | 0.02 | 68 | 1012.9 |
| 20260508153510 | 57 | 88 | 5.2 | 15.6 | 0.00 | 0.02 | 0.02 | 67 | 1012.9 |
| 20260508153014 | 57 | 104 | 7.8 | 15.6 | 0.00 | 0.02 | 0.02 | 67 | 1012.8 |
| 20260508152510 | 58 | 57 | 7.0 | 13.9 | 0.00 | 0.02 | 0.02 | 68 | 1012.8 |
| 20260508152010 | 57 | 118 | 4.3 | 14.8 | 0.00 | 0.02 | 0.02 | 71 | 1012.7 |
| 20260508151511 | 56 | 89 | 5.2 | 16.5 | 0.00 | 0.02 | 0.02 | 70 | 1012.7 |
| 20260508151006 | 56 | 98 | 4.3 | 16.5 | 0.00 | 0.02 | 0.02 | 68 | 1012.7 |
| 20260508150509 | 56 | 110 | 9.6 | 16.5 | 0.00 | 0.02 | 0.02 | 67 | 1012.7 |
| 20260508150033 | 56 | 120 | 3.5 | 17.4 | 0.00 | 0.02 | 0.02 | 68 | 1012.8 |
| 20260508145506 | 56 | 85 | 7.8 | 17.4 | 0.00 | 0.02 | 0.02 | 67 | 1012.8 |
| 20260508145004 | 57 | 108 | 7.8 | 14.8 | 0.00 | 0.02 | 0.02 | 66 | 1012.7 |
| 20260508144510 | 56 | 111 | 6.1 | 13.9 | 0.00 | 0.02 | 0.02 | 67 | 1012.7 |
| 20260508144006 | 56 | 106 | 6.1 | 12.2 | 0.00 | 0.02 | 0.02 | 68 | 1012.8 |
| 20260508143509 | 56 | 117 | 6.1 | 12.2 | 0.00 | 0.02 | 0.02 | 65 | 1012.8 |
| 20260508143015 | 57 | 136 | 7.0 | 12.2 | 0.00 | 0.02 | 0.02 | 66 | 1012.7 |
| 20260508142506 | 57 | 115 | 4.3 | 11.3 | 0.00 | 0.02 | 0.02 | 71 | 1012.7 |
| 20260508142003 | 56 | 110 | 5.2 | 15.6 | 0.00 | 0.02 | 0.02 | 68 | 1012.8 |
| 20260508141522 | 56 | 112 | 10.4 | 15.6 | 0.00 | 0.02 | 0.02 | 67 | 1012.8 |
| 20260508141007 | 55 | 76 | 5.2 | 17.4 | 0.00 | 0.02 | 0.02 | 69 | 1012.8 |
| 20260508140511 | 55 | 113 | 6.1 | 17.4 | 0.00 | 0.02 | 0.02 | 69 | 1012.8 |
| 20260508140014 | 55 | 87 | 2.6 | 13.0 | 0.00 | 0.02 | 0.02 | 73 | 1012.8 |
| 20260508135510 | 55 | 96 | 7.0 | 13.9 | 0.00 | 0.02 | 0.02 | 69 | 1012.9 |
| 20260508135011 | 54 | 55 | 6.1 | 13.9 | 0.00 | 0.02 | 0.02 | 71 | 1012.9 |
| 20260508134537 | 54 | 100 | 6.1 | 11.3 | 0.00 | 0.02 | 0.02 | 72 | 1012.9 |
| 20260508134008 | 53 | 134 | 4.3 | 13.0 | 0.00 | 0.02 | 0.02 | 71 | 1013.0 |
| 20260508133513 | 53 | 126 | 5.2 | 16.5 | 0.00 | 0.02 | 0.02 | 70 | 1013.1 |
| 20260508133015 | 53 | 109 | 9.6 | 16.5 | 0.00 | 0.02 | 0.02 | 69 | 1013.1 |
| 20260508132506 | 52 | 65 | 4.3 | 13.0 | 0.00 | 0.02 | 0.02 | 71 | 1013.2 |
| 20260508132007 | 53 | 148 | 6.1 | 13.0 | 0.00 | 0.02 | 0.02 | 69 | 1013.1 |
| 20260508131517 | 53 | 88 | 7.0 | 12.2 | 0.00 | 0.02 | 0.02 | 70 | 1013.1 |
| 20260508131007 | 53 | 126 | 5.2 | 12.2 | 0.00 | 0.02 | 0.02 | 70 | 1013.2 |
| 20260508130508 | 53 | 76 | 5.2 | 9.6 | 0.00 | 0.02 | 0.02 | 71 | 1013.2 |
| 20260508130006 | 52 | 140 | 2.6 | 9.6 | 0.00 | 0.02 | 0.02 | 72 | 1013.2 |
| 20260508125503 | 51 | 119 | 3.5 | 14.8 | 0.00 | 0.02 | 0.02 | 72 | 1013.2 |
| 20260508125003 | 51 | 59 | 7.8 | 14.8 | 0.00 | 0.02 | 0.02 | 73 | 1013.1 |
| 20260508124504 | 50 | 61 | 6.1 | 11.3 | 0.00 | 0.02 | 0.02 | 73 | 1013.1 |
| 20260508124003 | 50 | 79 | 6.1 | 10.4 | 0.00 | 0.02 | 0.02 | 75 | 1013.0 |
| 20260508123503 | 49 | 61 | 6.1 | 12.2 | 0.00 | 0.02 | 0.02 | 75 | 1013.0 |
| 20260508123016 | 49 | 55 | 6.1 | 12.2 | 0.00 | 0.02 | 0.02 | 76 | 1012.9 |
| 20260508122503 | 48 | 25 | 5.2 | 12.2 | 0.00 | 0.02 | 0.02 | 79 | 1012.8 |
| 20260508122002 | 48 | 32 | 3.5 | 7.8 | 0.00 | 0.02 | 0.02 | 82 | 1013.0 |
| 20260508121513 | 47 | 53 | 3.5 | 7.8 | 0.00 | 0.02 | 0.02 | 82 | 1013.0 |
| 20260508121007 | 47 | 75 | 4.3 | 7.8 | 0.00 | 0.02 | 0.02 | 83 | 1013.0 |
| 20260508120504 | 46 | 73 | 3.5 | 6.1 | 0.00 | 0.02 | 0.02 | 84 | 1012.9 |
| 20260508120005 | 46 | 36 | 1.7 | 6.1 | 0.00 | 0.02 | 0.02 | 85 | 1012.9 |
| 20260508115503 | 46 | 27 | 3.5 | 7.8 | 0.00 | 0.02 | 0.02 | 85 | 1012.9 |
| 20260508115002 | 45 | 45 | 2.6 | 7.8 | 0.00 | 0.02 | 0.02 | 86 | 1012.9 |
| 20260508114506 | 45 | 60 | 2.6 | 6.1 | 0.01 | 0.02 | 0.02 | 87 | 1012.9 |
| 20260508114004 | 45 | 66 | 2.6 | 7.0 | 0.01 | 0.02 | 0.02 | 87 | 1012.9 |
| 20260508113503 | 45 | 78 | 3.5 | 7.0 | 0.01 | 0.02 | 0.02 | 87 | 1012.9 |
| 20260508113003 | 44 | 47 | 2.6 | 5.2 | 0.01 | 0.02 | 0.02 | 87 | 1012.7 |
| 20260508112502 | 44 | 51 | 1.7 | 4.3 | 0.01 | 0.02 | 0.02 | 87 | 1012.7 |
| 20260508112006 | 44 | 74 | 1.7 | 6.1 | 0.01 | 0.02 | 0.02 | 87 | 1012.8 |
| 20260508111513 | 44 | 100 | 2.6 | 6.1 | 0.01 | 0.02 | 0.02 | 86 | 1012.9 |
| 20260508111005 | 44 | 68 | 2.6 | 6.1 | 0.01 | 0.02 | 0.02 | 86 | 1012.9 |
| 20260508110505 | 45 | 68 | 1.7 | 6.1 | 0.01 | 0.02 | 0.02 | 85 | 1012.9 |
| 20260508110017 | 45 | 87 | 2.6 | 6.1 | 0.01 | 0.02 | 0.02 | 85 | 1012.9 |
| 20260508105502 | 45 | 91 | 1.7 | 14.8 | 0.01 | 0.02 | 0.02 | 85 | 1012.9 |
| 20260508105006 | 45 | 107 | 1.7 | 13.9 | 0.01 | 0.02 | 0.02 | 84 | 1013.0 |
| 20260508104520 | 45 | 121 | 5.2 | 13.0 | 0.00 | 0.01 | 0.01 | 83 | 1013.1 |
| 20260508104002 | 45 | 86 | 2.6 | 3.5 | 0.00 | 0.01 | 0.01 | 82 | 1012.9 |
| 20260508103502 | 45 | 84 | 0.0 | 2.6 | 0.00 | 0.01 | 0.01 | 81 | 1012.7 |
| 20260508103007 | 45 | 84 | 0.0 | 3.5 | 0.00 | 0.01 | 0.01 | 81 | 1012.6 |
| 20260508102504 | 45 | 70 | 1.7 | 3.5 | 0.00 | 0.01 | 0.01 | 80 | 1012.4 |
| 20260508102003 | 45 | 49 | 1.7 | 6.1 | 0.00 | 0.01 | 0.01 | 80 | 1012.3 |
| 20260508101509 | 45 | 48 | 2.6 | 6.1 | 0.00 | 0.01 | 0.01 | 80 | 1012.3 |
| 20260508101006 | 45 | 82 | 1.7 | 4.3 | 0.00 | 0.01 | 0.01 | 79 | 1012.2 |
| 20260508100506 | 46 | 44 | 1.7 | 6.1 | 0.00 | 0.01 | 0.01 | 79 | 1012.3 |
| 20260508100006 | 46 | 56 | 2.6 | 6.1 | 0.00 | 0.01 | 0.01 | 79 | 1012.3 |
| 20260508095505 | 46 | 90 | 1.7 | 6.1 | 0.00 | 0.01 | 0.01 | 78 | 1012.3 |
| 20260508095007 | 46 | 64 | 1.7 | 9.6 | 0.00 | 0.01 | 0.01 | 78 | 1012.3 |
| 20260508094521 | 46 | 58 | 2.6 | 10.4 | 0.00 | 0.01 | 0.01 | 78 | 1012.3 |
| 20260508094002 | 46 | 98 | 5.2 | 10.4 | 0.00 | 0.01 | 0.01 | 78 | 1012.3 |
| 20260508093506 | 46 | 140 | 4.3 | 14.8 | 0.00 | 0.01 | 0.01 | 78 | 1012.3 |
| 20260508093019 | 46 | 150 | 3.5 | 15.6 | 0.00 | 0.01 | 0.01 | 79 | 1012.4 |
| 20260508092509 | 45 | 135 | 6.1 | 15.6 | 0.00 | 0.01 | 0.01 | 79 | 1012.8 |
| 20260508092002 | 45 | 67 | 7.0 | 15.6 | 0.00 | 0.01 | 0.01 | 79 | 1012.6 |
| 20260508091507 | 44 | 84 | 4.3 | 7.8 | 0.00 | 0.01 | 0.01 | 80 | 1012.6 |
| 20260508091003 | 44 | 86 | 3.5 | 7.0 | 0.00 | 0.01 | 0.01 | 80 | 1012.7 |
| 20260508090502 | 44 | 112 | 2.6 | 7.0 | 0.00 | 0.01 | 0.01 | 80 | 1012.6 |
| 20260508090021 | 44 | 75 | 1.7 | 5.2 | 0.00 | 0.01 | 0.01 | 81 | 1012.7 |
| 20260508085507 | 44 | 56 | 2.6 | 5.2 | 0.00 | 0.01 | 0.01 | 81 | 1012.6 |
| 20260508085007 | 44 | 65 | 1.7 | 4.3 | 0.00 | 0.01 | 0.01 | 81 | 1012.5 |
| 20260508084512 | 44 | 47 | 1.7 | 7.0 | 0.00 | 0.01 | 0.01 | 81 | 1012.5 |
| 20260508084010 | 44 | 62 | 2.6 | 7.8 | 0.00 | 0.01 | 0.01 | 81 | 1012.4 |
| 20260508083507 | 44 | 69 | 3.5 | 7.8 | 0.00 | 0.01 | 0.01 | 80 | 1012.5 |
| 20260508083024 | 44 | 84 | 0.9 | 5.2 | 0.00 | 0.01 | 0.01 | 81 | 1012.7 |
| 20260508082503 | 44 | 67 | 2.6 | 6.1 | 0.00 | 0.01 | 0.01 | 80 | 1012.6 |
| 20260508082006 | 45 | 46 | 2.6 | 7.0 | 0.00 | 0.01 | 0.01 | 80 | 1012.8 |
| 20260508081525 | 45 | 49 | 2.6 | 7.0 | 0.00 | 0.01 | 0.01 | 79 | 1012.7 |
| 20260508081009 | 45 | 120 | 2.6 | 7.0 | 0.00 | 0.01 | 0.01 | 79 | 1012.8 |
| 20260508080507 | 45 | 76 | 3.5 | 6.1 | 0.00 | 0.01 | 0.01 | 80 | 1012.8 |
| 20260508080013 | 45 | 63 | 1.7 | 5.2 | 0.00 | 0.01 | 0.01 | 81 | 1012.8 |
| 20260508075503 | 45 | 74 | 1.7 | 5.2 | 0.00 | 0.01 | 0.01 | 80 | 1012.8 |
| 20260508075002 | 45 | 64 | 3.5 | 5.2 | 0.00 | 0.01 | 0.01 | 81 | 1012.9 |
| 20260508074525 | 46 | 60 | 2.6 | 6.1 | 0.00 | 0.01 | 0.01 | 81 | 1012.9 |
| 20260508074004 | 46 | 86 | 2.6 | 7.0 | 0.00 | 0.01 | 0.01 | 81 | 1013.0 |
| 20260508073506 | 46 | 75 | 2.6 | 7.0 | 0.00 | 0.01 | 0.01 | 80 | 1012.9 |
| 20260508073016 | 46 | 50 | 2.6 | 7.8 | 0.00 | 0.01 | 0.01 | 80 | 1012.8 |
| 20260508072506 | 46 | 76 | 5.2 | 7.8 | 0.00 | 0.01 | 0.01 | 79 | 1012.9 |
| 20260508072007 | 46 | 111 | 1.7 | 6.1 | 0.00 | 0.01 | 0.01 | 80 | 1012.9 |
| 20260508071530 | 46 | 84 | 2.6 | 7.0 | 0.00 | 0.01 | 0.01 | 80 | 1013.0 |
| 20260508071008 | 46 | 90 | 3.5 | 11.3 | 0.00 | 0.01 | 0.01 | 79 | 1013.1 |
| 20260508070512 | 46 | 113 | 6.1 | 11.3 | 0.01 | 0.01 | 0.01 | 79 | 1013.1 |
| 20260508070030 | 46 | 83 | 6.1 | 13.0 | 0.01 | 0.01 | 0.01 | 79 | 1013.2 |
| 20260508065503 | 46 | 71 | 6.1 | 20.9 | 0.01 | 0.01 | 0.01 | 79 | 1013.2 |
| 20260508065008 | 45 | 78 | 11.3 | 20.9 | 0.01 | 0.01 | 0.01 | 78 | 1013.1 |
| 20260508064527 | 45 | 71 | 4.3 | 9.6 | 0.01 | 0.01 | 0.01 | 81 | 1013.1 |
| 20260508064011 | 45 | 84 | 5.2 | 9.6 | 0.01 | 0.01 | 0.01 | 82 | 1013.0 |
| 20260508063502 | 45 | 80 | 2.6 | 5.2 | 0.01 | 0.01 | 0.01 | 83 | 1013.2 |
| 20260508063019 | 45 | 53 | 1.7 | 3.5 | 0.01 | 0.01 | 0.01 | 83 | 1013.1 |
| 20260508062508 | 45 | 38 | 1.7 | 3.5 | 0.01 | 0.01 | 0.01 | 84 | 1013.0 |
| 20260508062009 | 44 | 34 | 1.7 | 2.6 | 0.01 | 0.01 | 0.01 | 83 | 1013.0 |
| 20260508061521 | 44 | 45 | 0.9 | 2.6 | 0.01 | 0.01 | 0.01 | 83 | 1013.1 |
| 20260508061009 | 44 | 102 | 0.0 | 1.7 | 0.01 | 0.01 | 0.01 | 84 | 1013.1 |
| 20260508060508 | 45 | 102 | 0.0 | 3.5 | 0.00 | 0.00 | 0.00 | 83 | 1013.2 |
| 20260508060019 | 45 | 102 | 0.0 | 3.5 | 0.00 | 0.00 | 0.00 | 84 | 1013.3 |
| 20260508055505 | 44 | 94 | 1.7 | 2.6 | 0.00 | 0.00 | 0.00 | 83 | 1013.3 |
| 20260508055011 | 44 | 101 | 0.0 | 0.0 | 0.00 | 0.00 | 0.00 | 81 | 1013.2 |
| 20260508054527 | 44 | 101 | 0.0 | 0.0 | 0.00 | 0.00 | 0.00 | 81 | 1013.2 |
| 20260508054007 | 44 | 101 | 0.0 | 0.0 | 0.00 | 0.00 | 0.00 | 80 | 1013.3 |
| 20260508053509 | 45 | 101 | 0.0 | 0.0 | 0.00 | 0.00 | 0.00 | 79 | 1013.3 |
| 20260508053028 | 45 | 101 | 0.0 | 0.0 | 0.00 | 0.00 | 0.00 | 81 | 1013.4 |
| 20260508052511 | 45 | 101 | 0.0 | 0.0 | 0.00 | 0.00 | 0.00 | 81 | 1013.4 |
| 20260508052008 | 45 | 101 | 0.0 | 0.0 | 0.00 | 0.00 | 0.00 | 81 | 1013.4 |
| 20260508051516 | 45 | 101 | 0.0 | 0.0 | 0.00 | 0.00 | 0.00 | 80 | 1013.4 |
| 20260508051005 | 45 | 101 | 0.0 | 0.0 | 0.00 | 0.00 | 0.00 | 81 | 1013.4 |
| 20260508050505 | 46 | 101 | 0.0 | 0.0 | 0.00 | 0.00 | 0.00 | 78 | 1013.2 |
| 20260508050027 | 46 | 101 | 0.0 | 1.7 | 0.00 | 0.00 | 0.00 | 78 | 1013.3 |
| 20260508045512 | 46 | 101 | 0.0 | 2.6 | 0.00 | 0.00 | 0.00 | 77 | 1013.3 |
| 20260508045008 | 46 | 101 | 0.0 | 3.5 | 0.00 | 0.00 | 0.00 | 77 | 1013.3 |
| 20260508044523 | 46 | 113 | 1.7 | 5.2 | 0.00 | 0.00 | 0.00 | 76 | 1013.3 |
| 20260508044008 | 47 | 105 | 1.7 | 7.0 | 0.00 | 0.00 | 0.00 | 74 | 1013.3 |
| 20260508043514 | 47 | 29 | 0.9 | 7.0 | 0.00 | 0.00 | 0.00 | 73 | 1013.4 |
| 20260508043027 | 47 | 76 | 2.6 | 5.2 | 0.00 | 0.00 | 0.00 | 72 | 1013.9 |
| 20260508042507 | 47 | 113 | 0.9 | 2.6 | 0.00 | 0.00 | 0.00 | 71 | 1013.7 |
| 20260508042012 | 47 | 133 | 0.9 | 3.5 | 0.00 | 0.00 | 0.00 | 72 | 1013.6 |
| 20260508041530 | 47 | 131 | 0.0 | 3.5 | 0.00 | 0.00 | 0.00 | 71 | 1013.5 |
| 20260508041008 | 47 | 113 | 0.9 | 3.5 | 0.00 | 0.00 | 0.00 | 71 | 1013.4 |
| 20260508040512 | 47 | 122 | 0.9 | 6.1 | 0.00 | 0.00 | 0.00 | 71 | 1013.5 |
| 20260508040013 | 47 | 127 | 1.7 | 6.1 | 0.00 | 0.00 | 0.00 | 68 | 1013.6 |
| 20260508035505 | 47 | 103 | 1.7 | 5.2 | 0.00 | 0.00 | 0.00 | 69 | 1013.5 |
| 20260508035004 | 47 | 124 | 0.9 | 7.0 | 0.00 | 0.00 | 0.00 | 69 | 1013.5 |
| 20260508034509 | 47 | 114 | 1.7 | 7.0 | 0.00 | 0.00 | 0.00 | 69 | 1013.5 |
| 20260508034003 | 47 | 101 | 0.9 | 4.3 | 0.00 | 0.00 | 0.00 | 69 | 1013.5 |
| 20260508033510 | 47 | 65 | 0.9 | 7.8 | 0.00 | 0.00 | 0.00 | 67 | 1013.4 |
| 20260508033010 | 47 | 130 | 1.7 | 7.8 | 0.00 | 0.00 | 0.00 | 68 | 1013.5 |
| 20260508032504 | 46 | 111 | 3.5 | 7.8 | 0.00 | 0.00 | 0.00 | 67 | 1013.5 |
| 20260508032010 | 46 | 137 | 1.7 | 8.7 | 0.00 | 0.00 | 0.00 | 69 | 1013.6 |
| 20260508031512 | 46 | 68 | 3.5 | 8.7 | 0.00 | 0.00 | 0.00 | 69 | 1013.5 |
| 20260508031003 | 45 | 101 | 3.5 | 8.7 | 0.00 | 0.00 | 0.00 | 70 | 1013.6 |
| 20260508030505 | 45 | 74 | 1.7 | 3.5 | 0.00 | 0.00 | 0.00 | 71 | 1013.6 |
| 20260508030020 | 44 | 40 | 0.9 | 2.6 | 0.00 | 0.00 | 0.00 | 71 | 1013.5 |
| 20260508025508 | 44 | 40 | 0.9 | 2.6 | 0.00 | 0.00 | 0.00 | 70 | 1013.4 |
| 20260508025005 | 44 | 51 | 0.9 | 2.6 | 0.00 | 0.00 | 0.00 | 70 | 1013.4 |
| 20260508024514 | 44 | 70 | 0.0 | 2.6 | 0.00 | 0.00 | 0.00 | 69 | 1013.4 |
| 20260508024007 | 44 | 137 | 0.0 | 1.7 | 0.00 | 0.00 | 0.00 | 70 | 1013.4 |
| 20260508023508 | 44 | 137 | 0.0 | 0.0 | 0.00 | 0.00 | 0.00 | 69 | 1013.4 |
| 20260508023010 | 44 | 137 | 0.0 | 0.0 | 0.00 | 0.00 | 0.00 | 70 | 1013.5 |
| 20260508022506 | 44 | 137 | 0.0 | 0.0 | 0.00 | 0.00 | 0.00 | 69 | 1013.4 |
| 20260508022004 | 44 | 137 | 0.0 | 0.0 | 0.00 | 0.00 | 0.00 | 70 | 1013.5 |
| 20260508021515 | 44 | 137 | 0.0 | 0.0 | 0.00 | 0.00 | 0.00 | 70 | 1013.4 |
| 20260508021002 | 44 | 137 | 0.0 | 0.0 | 0.00 | 0.00 | 0.00 | 69 | 1013.3 |
| 20260508020505 | 44 | 137 | 0.0 | 0.0 | 0.00 | 0.00 | 0.00 | 70 | 1013.3 |
| 20260508020012 | 44 | 137 | 0.0 | 0.0 | 0.00 | 0.00 | 0.00 | 70 | 1013.3 |
| 20260508015502 | 44 | 137 | 0.0 | 0.0 | 0.00 | 0.00 | 0.00 | 69 | 1013.3 |
| 20260508015007 | 45 | 137 | 0.0 | 0.0 | 0.00 | 0.00 | 0.00 | 69 | 1013.3 |
| 20260508014517 | 45 | 137 | 0.0 | 0.9 | 0.00 | 0.00 | 0.00 | 69 | 1013.3 |
| 20260508014008 | 45 | 137 | 0.0 | 0.9 | 0.00 | 0.00 | 0.00 | 68 | 1013.2 |
| 20260508013502 | 45 | 137 | 0.0 | 0.9 | 0.00 | 0.00 | 0.00 | 67 | 1013.2 |
| 20260508013033 | 45 | 137 | 0.0 | 0.9 | 0.00 | 0.00 | 0.00 | 66 | 1013.2 |
| 20260508012508 | 46 | 137 | 0.0 | 0.0 | 0.00 | 0.00 | 0.00 | 65 | 1013.2 |
| 20260508012005 | 46 | 137 | 0.0 | 0.0 | 0.00 | 0.00 | 0.00 | 65 | 1013.2 |
| 20260508011516 | 46 | 137 | 0.0 | 0.0 | 0.00 | 0.00 | 0.00 | 64 | 1013.1 |
| 20260508011005 | 46 | 137 | 0.0 | 0.0 | 0.00 | 0.00 | 0.00 | 63 | 1013.0 |
| 20260508010509 | 47 | 137 | 0.0 | 0.0 | 0.00 | 0.00 | 0.00 | 63 | 1013.0 |
| 20260508010015 | 47 | 137 | 0.0 | 0.0 | 0.00 | 0.00 | 0.00 | 62 | 1013.0 |
| 20260508005505 | 48 | 137 | 0.0 | 0.9 | 0.00 | 0.00 | 0.00 | 62 | 1013.1 |
| 20260508005006 | 48 | 137 | 0.0 | 0.9 | 0.00 | 0.00 | 0.00 | 61 | 1013.0 |